Dati Storici

Data ora Umidita' aria (%) Temperatura aria (°C) Rad globale (W/m²) Gonioanemometro (°) Tacoanemometro (m/s) Pioggia (mm)
22-06-2020 10:10 38.6 % 29.89 51.226 1.396 0 0
22-06-2020 10:00 39.2 % 29.891 121.86 0.263 0 0
22-06-2020 09:50 39 % 29.469 97.67 -0.05 0 0
22-06-2020 09:40 39.3 % 29.265 34.161 -0.002 0 0
22-06-2020 09:30 39.7 % 28.955 38.602 1.863 0 0
22-06-2020 09:20 40.6 % 28.438 93.044 0.839 0 0
22-06-2020 09:10 44.3 % 27.325 59.621 1.022 0 0
22-06-2020 09:00 45.6 % 27.776 345.241 1.498 0 0
22-06-2020 08:50 49.1 % 27.255 252.601 0.989 0 0
22-06-2020 08:40 50.2 % 26.197 284.676 0.245 0 0
22-06-2020 08:30 50.2 % 25.707 175.963 2.448 0 0
22-06-2020 08:20 55.1 % 25.908 335.604 1.272 0 0
22-06-2020 08:10 56.2 % 25.694 337.05 0.701 0 0
22-06-2020 08:00 57.3 % 25.017 133.94 0.258 0 0
22-06-2020 07:50 58 % 24.568 271.614 -0.034 0 0
22-06-2020 07:40 59 % 24.194 304.097 0.924 0 0
22-06-2020 07:30 60.7 % 24.079 298.86 1.409 0 0
22-06-2020 07:20 59.6 % 24.156 314.231 2.013 0 0
22-06-2020 07:10 62.1 % 23.92 201.925 -0.035 0 0
22-06-2020 07:00 63.6 % 24.024 172.351 1.179 0 0

I dati sono presentati in modo automatico a scopo informativo. In seguito a verifica i dati possono subire modifiche o essere invalidati e non riportati negli archivi definitivi.